sat.trackr.live / text

‹ back to catalog

STARLINK-3273

NORAD 50191 · 2021-125AM

PAYLOAD ACTIVE UNKNOWN

§ Identity

Operator
Country
US
Launch date
2021-12-18
Launch site
AFWTR
Launch vehicle
Mass (kg)
RCS (m²)

Purposes: comms

External: N2YO · Heavens-Above · Gunter

§ Orbital elements

Epoch: 2026-05-25T02:06:12.604896Z

Period
95.44 min
Inclination
53.2137°
Eccentricity
0.0001129
Mean motion
15.08840996 rev/d
Perigee alt
539.0 km
Apogee alt
540.5 km
Semi-major
6,917.9 km
B*
3.9061e-5
RAAN
276.1558°
Arg perigee
89.8021°
Mean anomaly
270.3100°
Rev number
24,798

§ Raw data

STARLINK-32731 50191U 21125AM  26145.08764589  .00000334  00000+0  39061-4 0  99942 50191  53.2137 276.1558 0001129  89.8021 270.3100 15.08840996247987

JSON: /api/v1/satellites/50191 · /tle

For live sub-satellite position, see the globe view (requires WebGL).

§ Visibility from observer

Set your observer location to see the next 7 days of passes ≥ 10°. The values pass through the URL so the page stays shareable.

No JS? Fill the form by hand. The geolocation button needs JavaScript.